Location: Unspecified
(32.4165°N, 0.0000°E)
Time: 03:49:50
(UTC+00:00)

Meteor 1-22 - Visible Passes

Search period start: 04 April 2026 00:00
Search period end: 14 April 2026 00:00
Orbit: 796 x 903 km, 81.3° (Epoch: 29 March)

Date Brightness Start Highest point End Pass type
(mag) Time Alt. Az. Time Alt. Az. Time Alt. Az.
4 Apr 7.2 02:22:03 10° N 02:22:39 13° N 02:22:39 13° N visible
5 Apr 7.3 02:09:41 10° N 02:10:06 12° N 02:10:06 12° N visible
6 Apr 7.4 01:57:19 10° N 01:57:34 11° N 01:57:34 11° N visible
7 Apr 7.5 01:44:58 10° N 01:45:04 11° N 01:45:04 11° N visible
